Location: Bermeries
(50.2863°N, 3.7551°E)
Time: 03:55:03
(UTC+00:00)

Cosmos 1300 - Pass Details

Date: 23 May 2024
Orbit: 465 x 468 km, 82.5° (Epoch: 17 June)

Event Time Altitude Azimuth Distance (km) Brightness Sun altitude
Rises 00:54:50 0° 341° (NNW) 2,518 7.1 -17.3°
Reaches altitude 10° 00:57:04 10° 331° (NNW) 1,635 5.8 -17.1°
Maximum altitude 01:00:14 31° 268° (W) 853 3.6 -17.0°
Enters shadow 01:00:47 29° 250° (WSW) 884 3.5 -17.0°
